TimeMST,TemperatureF,Dew PointF,Humidity,Sea Level PressureIn,VisibilityMPH,Wind Direction,Wind SpeedMPH,Gust SpeedMPH,PrecipitationIn,Events,Conditions,WindDirDegrees,DateUTC
12:00 AM,-9999,-9999,N/A,-9999,-9999.0,North,-9999.0,-,N/A,,Unknown,0,2012-12-03 07:00:00
12:55 AM,61.0,48.0,62,30.01,10.0,SSW,3.5,-,N/A,,Scattered Clouds,210,2012-12-03 07:55:00
1:55 AM,63.0,48.0,58,30.00,10.0,SW,5.8,-,N/A,,Scattered Clouds,230,2012-12-03 08:55:00
2:55 AM,63.0,48.0,58,30.01,10.0,Calm,Calm,-,N/A,,Scattered Clouds,0,2012-12-03 09:55:00
3:55 AM,62.1,46.9,58,30.03,10.0,Calm,Calm,-,N/A,,Partly Cloudy,0,2012-12-03 10:55:00
4:55 AM,57.9,46.9,67,30.01,10.0,SSE,3.5,-,N/A,,Partly Cloudy,160,2012-12-03 11:55:00
5:55 AM,59.0,46.9,64,30.03,10.0,Calm,Calm,-,N/A,,Partly Cloudy,0,2012-12-03 12:55:00
6:55 AM,59.0,48.0,67,30.04,10.0,Calm,Calm,-,N/A,,Scattered Clouds,0,2012-12-03 13:55:00
7:55 AM,57.9,46.9,67,30.05,10.0,Calm,Calm,-,N/A,,Mostly Cloudy,0,2012-12-03 14:55:00
8:55 AM,61.0,48.0,62,30.08,10.0,Calm,Calm,-,N/A,,Mostly Cloudy,0,2012-12-03 15:55:00
9:55 AM,68.0,48.9,50,30.09,10.0,Calm,Calm,-,N/A,,Mostly Cloudy,0,2012-12-03 16:55:00
10:55 AM,71.1,50.0,47,30.09,10.0,Calm,Calm,-,N/A,,Scattered Clouds,0,2012-12-03 17:55:00
11:55 AM,73.9,51.1,45,30.08,10.0,NW,4.6,-,N/A,,Scattered Clouds,320,2012-12-03 18:55:00
12:55 PM,75.0,50.0,41,30.05,10.0,Variable,3.5,-,N/A,,Scattered Clouds,0,2012-12-03 19:55:00
1:55 PM,75.9,48.9,38,30.04,10.0,Calm,Calm,-,N/A,,Scattered Clouds,0,2012-12-03 20:55:00
2:55 PM,77.0,48.0,36,30.02,10.0,NW,3.5,-,N/A,,Mostly Cloudy,310,2012-12-03 21:55:00
3:55 PM,77.0,46.9,34,30.02,10.0,WSW,3.5,-,N/A,,Mostly Cloudy,240,2012-12-03 22:55:00
4:55 PM,77.0,46.9,34,30.01,10.0,WSW,3.5,-,N/A,,Scattered Clouds,250,2012-12-03 23:55:00
5:55 PM,73.9,48.9,41,30.03,10.0,West,3.5,-,N/A,,Mostly Cloudy,280,2012-12-04 00:55:00
6:55 PM,71.1,48.9,45,30.05,10.0,West,3.5,-,N/A,,Mostly Cloudy,280,2012-12-04 01:55:00
7:55 PM,69.1,48.0,47,30.06,10.0,Calm,Calm,-,N/A,,Mostly Cloudy,0,2012-12-04 02:55:00
8:55 PM,66.0,48.9,54,30.08,10.0,Calm,Calm,-,N/A,,Mostly Cloudy,0,2012-12-04 03:55:00
9:55 PM,66.0,48.0,52,30.10,10.0,Calm,Calm,-,N/A,,Mostly Cloudy,0,2012-12-04 04:55:00
10:55 PM,64.0,48.0,56,30.12,10.0,Calm,Calm,-,N/A,,Mostly Cloudy,0,2012-12-04 05:55:00
11:55 PM,64.0,46.9,54,30.12,10.0,Calm,Calm,-,N/A,,Mostly Cloudy,0,2012-12-04 06:55:00